When you browse on this site, cookies collect data to enhance your experience and personalize the content and advertising you see.
Visit our Privacy Policy to learn more. By continuing to use the site, you agree to this use of cookies and data.
  • en Belgique
  • Liste des pays
  • À 7 jours
  • Température de l'eau
  • Carte satellitaire
  • Carte météo
  • Widgets météo
  • user-avatar
    Se connecter

    Météo par heure à Tuzla

    Ce jour, 25 Avril, Jeudi

    Heure Température Précipitation Vent Pression Humidité
    00:00 +13°C° 0 mm 3 m/s 724 mmHg 71%
    01:00 +12°C° 0 mm 2 m/s 724 mmHg 74%
    02:00 +12°C° 0 mm 2 m/s 724 mmHg 73%
    03:00 +12°C° 0 mm 2 m/s 724 mmHg 72%
    04:00 +12°C° 0 mm 2 m/s 724 mmHg 71%
    05:00 +14°C° 0 mm 2 m/s 724 mmHg 69%
    06:00 +15°C° 0 mm 2 m/s 724 mmHg 67%
    07:00 +17°C° 0 mm 2 m/s 724 mmHg 63%
    08:00 +19°C° 0 mm 2 m/s 725 mmHg 56%
    09:00 +21°C° 0 mm 2 m/s 725 mmHg 50%
    10:00 +25°C° 0 mm 2 m/s 725 mmHg 43%
    11:00 +25°C° 0 mm 2 m/s 725 mmHg 40%
    12:00 +26°C° 0 mm 2 m/s 725 mmHg 37%
    13:00 +27°C° 0 mm 2 m/s 725 mmHg 34%
    14:00 +27°C° 0 mm 2 m/s 724 mmHg 37%
    15:00 +26°C° 0 mm 1 m/s 724 mmHg 40%
    16:00 +26°C° 0 mm 1 m/s 724 mmHg 44%
    17:00 +23°C° 0 mm 1 m/s 724 mmHg 51%
    18:00 +21°C° 0 mm 1 m/s 723 mmHg 58%
    19:00 +18°C° 0 mm 2 m/s 723 mmHg 65%
    20:00 +17°C° 0 mm 2 m/s 723 mmHg 68%
    21:00 +16°C° 0 mm 2 m/s 723 mmHg 72%
    22:00 +15°C° 0 mm 2 m/s 724 mmHg 75%
    23:00 +15°C° 0 mm 2 m/s 724 mmHg 76%

    Demain, 26 Avril, Vendredi

    Heure Température Précipitation Vent Pression Humidité
    00:00 +15°C° 0 mm 2 m/s 723 mmHg 76%
    01:00 +14°C° 0 mm 2 m/s 723 mmHg 77%
    02:00 +14°C° 0 mm 2 m/s 723 mmHg 75%
    03:00 +14°C° 0 mm 2 m/s 723 mmHg 73%
    04:00 +13°C° 0 mm 2 m/s 723 mmHg 72%
    05:00 +15°C° 0 mm 2 m/s 723 mmHg 68%
    06:00 +16°C° 0 mm 2 m/s 723 mmHg 64%
    07:00 +17°C° 0 mm 2 m/s 723 mmHg 59%
    08:00 +20°C° 0 mm 2 m/s 723 mmHg 52%
    09:00 +23°C° 0 mm 2 m/s 723 mmHg 45%
    10:00 +26°C° 0 mm 2 m/s 723 mmHg 38%
    11:00 +27°C° 0 mm 2 m/s 722 mmHg 35%
    12:00 +28°C° 0 mm 3 m/s 722 mmHg 32%
    13:00 +29°C° 0 mm 3 m/s 722 mmHg 28%
    14:00 +29°C° 0 mm 3 m/s 721 mmHg 31%
    15:00 +28°C° 0 mm 3 m/s 721 mmHg 33%
    16:00 +28°C° 0 mm 3 m/s 721 mmHg 36%
    17:00 +25°C° 0 mm 3 m/s 720 mmHg 44%
    18:00 +21°C° 0 mm 2 m/s 720 mmHg 53%
    19:00 +19°C° 0 mm 2 m/s 720 mmHg 61%
    20:00 +18°C° 0 mm 2 m/s 720 mmHg 64%
    21:00 +18°C° 0 mm 1 m/s 720 mmHg 66%
    22:00 +18°C° 0 mm 1 m/s 720 mmHg 69%
    23:00 +16°C° 0.1 mm 1 m/s 720 mmHg 72%

    Après-demain, 27 Avril, Samedi

    Heure Température Précipitation Vent Pression Humidité
    00:00 +16°C° 0.1 mm 1 m/s 720 mmHg 75%
    01:00 +14°C° 0.1 mm 0 m/s 720 mmHg 78%
    02:00 +14°C° 0.1 mm 0 m/s 720 mmHg 80%
    03:00 +14°C° 0.1 mm 0 m/s 720 mmHg 83%
    04:00 +13°C° 0.1 mm 0 m/s 720 mmHg 85%
    05:00 +14°C° 1 mm 1 m/s 720 mmHg 87%
    06:00 +14°C° 1 mm 1 m/s 720 mmHg 90%
    07:00 +14°C° 1 mm 2 m/s 720 mmHg 92%
    08:00 +14°C° 1 mm 1 m/s 720 mmHg 92%
    09:00 +13°C° 1 mm 1 m/s 720 mmHg 91%
    10:00 +12°C° 1 mm 1 m/s 720 mmHg 91%
    11:00 +14°C° 0.4 mm 1 m/s 720 mmHg 85%
    12:00 +15°C° 0.4 mm 1 m/s 720 mmHg 80%
    13:00 +18°C° 0.4 mm 1 m/s 720 mmHg 74%
    14:00 +16°C° 1.2 mm 2 m/s 720 mmHg 76%
    15:00 +15°C° 1.2 mm 2 m/s 720 mmHg 79%
    16:00 +15°C° 1.2 mm 2 m/s 720 mmHg 82%
    17:00 +14°C° 1.2 mm 1 m/s 720 mmHg 84%
    18:00 +13°C° 1.2 mm 1 m/s 720 mmHg 87%
    19:00 +11°C° 1.2 mm 0 m/s 720 mmHg 90%
    20:00 +10°C° 0.2 mm 0 m/s 720 mmHg 91%
    21:00 +9°C° 0.2 mm 0 m/s 721 mmHg 91%
    22:00 +9°C° 0.2 mm 0 m/s 721 mmHg 92%
    23:00 +8°C° 0 mm 0 m/s 721 mmHg 93%

    28 Avril, Dimanche

    Heure Température Précipitation Vent Pression Humidité
    00:00 +8°C° 0 mm 0 m/s 721 mmHg 93%
    01:00 +8°C° 0 mm 1 m/s 721 mmHg 93%
    02:00 +8°C° 0 mm 1 m/s 721 mmHg 93%
    03:00 +8°C° 0 mm 1 m/s 721 mmHg 93%
    04:00 +8°C° 0 mm 1 m/s 720 mmHg 94%
    05:00 +9°C° 0 mm 1 m/s 721 mmHg 90%
    06:00 +11°C° 0 mm 1 m/s 721 mmHg 87%
    07:00 +11°C° 0 mm 0 m/s 721 mmHg 83%
    08:00 +14°C° 0.1 mm 1 m/s 721 mmHg 74%
    09:00 +16°C° 0.1 mm 1 m/s 721 mmHg 65%
    10:00 +18°C° 0.1 mm 1 m/s 721 mmHg 56%
    11:00 +19°C° 0.3 mm 1 m/s 721 mmHg 58%
    12:00 +19°C° 0.3 mm 1 m/s 720 mmHg 60%
    13:00 +19°C° 0.3 mm 1 m/s 720 mmHg 62%
    14:00 +17°C° 0.7 mm 2 m/s 719 mmHg 67%
    15:00 +16°C° 0.7 mm 2 m/s 719 mmHg 72%
    16:00 +16°C° 0.7 mm 2 m/s 718 mmHg 76%
    17:00 +14°C° 1.5 mm 1 m/s 718 mmHg 81%
    18:00 +13°C° 1.5 mm 1 m/s 718 mmHg 86%
    19:00 +12°C° 1.5 mm 1 m/s 718 mmHg 91%
    20:00 +11°C° 0.9 mm 0 m/s 719 mmHg 92%
    21:00 +10°C° 0.9 mm 0 m/s 719 mmHg 93%
    22:00 +10°C° 0.9 mm 0 m/s 719 mmHg 94%
    23:00 +10°C° 0.1 mm 0 m/s 719 mmHg 95%

    29 Avril, Lundi

    Heure Température Précipitation Vent Pression Humidité
    00:00 +9°C° 0.1 mm 0 m/s 719 mmHg 95%
    01:00 +9°C° 0.1 mm 0 m/s 718 mmHg 95%
    02:00 +9°C° 0.5 mm 0 m/s 718 mmHg 96%
    03:00 +9°C° 0.5 mm 0 m/s 718 mmHg 96%
    04:00 +9°C° 0.5 mm 0 m/s 718 mmHg 96%
    05:00 +9°C° 0.2 mm 0 m/s 718 mmHg 95%
    06:00 +10°C° 0.2 mm 0 m/s 718 mmHg 94%
    07:00 +10°C° 0.2 mm 0 m/s 718 mmHg 93%
    08:00 +11°C° 0.4 mm 0 m/s 718 mmHg 89%
    09:00 +12°C° 0.4 mm 0 m/s 718 mmHg 86%
    10:00 +14°C° 0.4 mm 0 m/s 718 mmHg 83%
    11:00 +15°C° 1.5 mm 1 m/s 718 mmHg 82%
    12:00 +15°C° 1.5 mm 1 m/s 717 mmHg 81%
    13:00 +16°C° 1.5 mm 2 m/s 717 mmHg 81%
    14:00 +15°C° 1.3 mm 1 m/s 717 mmHg 83%
    15:00 +14°C° 1.3 mm 1 m/s 717 mmHg 85%
    16:00 +13°C° 1.3 mm 1 m/s 716 mmHg 87%
    17:00 +13°C° 1.1 mm 1 m/s 717 mmHg 89%
    18:00 +12°C° 1.1 mm 1 m/s 717 mmHg 92%
    19:00 +11°C° 1.1 mm 1 m/s 717 mmHg 94%
    20:00 +10°C° 0.1 mm 1 m/s 717 mmHg 95%
    21:00 +10°C° 0.1 mm 1 m/s 717 mmHg 95%
    22:00 +10°C° 0.1 mm 1 m/s 718 mmHg 96%
    23:00 +9°C° 0.4 mm 1 m/s 717 mmHg 96%

    30 Avril, Mardi

    Heure Température Précipitation Vent Pression Humidité
    00:00 +9°C° 0.4 mm 1 m/s 717 mmHg 97%
    01:00 +9°C° 0.4 mm 1 m/s 717 mmHg 97%
    02:00 +9°C° 1.1 mm 1 m/s 717 mmHg 97%
    03:00 +9°C° 1.1 mm 1 m/s 717 mmHg 97%
    04:00 +9°C° 1.1 mm 1 m/s 717 mmHg 97%
    05:00 +9°C° 0.5 mm 1 m/s 717 mmHg 96%
    06:00 +9°C° 0.5 mm 1 m/s 717 mmHg 96%
    07:00 +9°C° 0.5 mm 1 m/s 717 mmHg 96%
    08:00 +10°C° 0.1 mm 1 m/s 718 mmHg 93%
    09:00 +11°C° 0.1 mm 1 m/s 718 mmHg 90%
    10:00 +11°C° 0.1 mm 1 m/s 718 mmHg 87%
    11:00 +12°C° 0.1 mm 2 m/s 718 mmHg 84%
    12:00 +13°C° 0.1 mm 2 m/s 718 mmHg 80%
    13:00 +13°C° 0.1 mm 2 m/s 718 mmHg 76%
    14:00 +12°C° 0.2 mm 3 m/s 718 mmHg 77%
    15:00 +12°C° 0.2 mm 3 m/s 718 mmHg 78%
    16:00 +12°C° 0.2 mm 3 m/s 717 mmHg 79%
    17:00 +12°C° 0.1 mm 2 m/s 718 mmHg 84%
    18:00 +10°C° 0.1 mm 2 m/s 718 mmHg 89%
    19:00 +10°C° 0.1 mm 1 m/s 718 mmHg 94%
    20:00 +10°C° 0 mm 1 m/s 718 mmHg 95%
    21:00 +9°C° 0 mm 1 m/s 719 mmHg 96%
    22:00 +9°C° 0 mm 1 m/s 719 mmHg 97%
    23:00 +9°C° 0 mm 1 m/s 719 mmHg 96%
    Voir plus